Vorticity
11 11 10 8 6 5 4 5 7 9 11 13 13 13 12 11 9 9 9 10 9 7 2 -2 -5 -5 -5 -4 -2 2 7 12 15 17 15 7 15 18 18 15 14 17 22 27 25 21 17 15 19 23 26 23 17 15 17 21 25 28 29 29 28 29 30 33 34 34 29 18 10
11 12 12 10 8 6 5 4 6 7 9 11 13 13 13 12 11 10 9 10 12 12 9 5 1 -1 -2 -4 -5 -4 -1 4 9 9 4 -6 -1 3 6 6 7 9 13 19 25 24 21 18 21 22 20 15 12 15 20 23 22 21 20 18 15 15 17 22 27 31 32 30 21
9 11 12 12 10 8 6 5 5 6 8 9 11 12 13 12 11 10 10 11 14 15 14 11 8 5 3 1 -3 -5 -6 -5 -3 -5 -10 -14 -14 -15 -14 -12 -7 -3 -0 4 13 19 22 19 18 16 15 15 17 22 26 28 24 20 16 13 12 13 14 17 20 23 27 33 35
9 9 11 12 12 10 8 5 4 5 6 7 9 11 12 12 12 11 10 11 14 16 16 14 12 12 11 11 6 2 -2 -6 -10 -14 -18 -19 -22 -27 -30 -29 -20 -14 -8 -2 2 7 12 14 11 9 10 18 23 22 21 27 28 25 18 10 11 16 23 29 28 25 25 27 31
10 9 9 11 13 12 10 7 5 3 3 4 7 9 12 13 13 12 11 11 16 20 22 17 14 13 13 15 15 12 7 2 -5 -10 -15 -19 -20 -25 -29 -33 -30 -24 -15 -1 6 4 1 3 3 3 5 13 22 19 13 12 27 29 23 14 13 14 20 31 33 30 24 20 20
12 10 9 9 11 13 13 11 7 4 2 2 5 7 11 13 15 13 12 11 15 20 23 20 16 16 18 18 19 18 16 13 8 3 -2 -5 -8 -12 -17 -23 -28 -31 -25 -5 16 15 6 -0 1 1 1 3 14 18 14 1 14 22 24 19 16 9 5 11 23 23 18 12 12
15 13 11 9 10 12 13 13 10 6 3 1 3 5 8 12 15 15 13 11 11 16 21 23 18 18 20 24 29 32 32 27 21 16 13 14 14 10 4 -5 -13 -19 -19 -10 9 14 13 9 7 4 -1 -5 2 11 15 7 2 10 17 15 12 6 2 2 13 17 17 15 16
15 14 12 10 10 11 12 14 13 9 5 2 2 2 4 9 14 15 14 11 7 10 16 24 19 18 20 26 37 45 48 41 31 23 20 20 24 26 24 17 9 3 -1 -5 -7 -7 -4 7 14 13 6 -4 -6 -2 5 12 7 8 10 9 4 1 -2 -3 5 12 16 19 21
15 15 14 12 10 10 11 14 14 13 9 4 1 0 2 6 12 15 15 11 4 3 8 19 18 20 23 28 27 29 33 39 34 27 20 16 19 26 32 33 25 22 18 12 -5 -21 -29 -19 3 15 17 7 0 -5 -5 2 7 5 3 7 -2 -5 -5 -5 1 6 10 15 17
14 15 15 13 11 10 10 12 14 15 12 8 3 1 1 4 10 14 15 10 5 2 2 8 12 19 23 20 7 2 7 23 30 28 22 18 18 21 26 33 30 29 27 25 13 -6 -24 -32 -17 -0 12 14 10 4 -3 -13 -8 -3 1 3 -5 -7 -2 10 8 6 6 8 12
14 14 15 14 13 11 10 10 13 15 15 12 6 3 1 2 8 12 14 12 10 6 1 -2 7 18 22 12 -7 -15 -11 7 23 29 28 23 20 20 21 24 26 26 26 26 23 15 3 -8 -9 -6 1 10 14 13 5 -12 -20 -16 -6 1 -6 -8 -2 15 19 17 13 11 17
14 14 14 15 14 12 10 9 12 15 16 15 10 5 2 1 6 10 14 14 13 10 4 -3 3 12 18 12 -5 -16 -18 -6 14 27 32 25 20 19 20 22 24 26 27 27 27 26 24 20 13 6 2 4 13 17 16 7 -4 -7 -5 0 -8 -12 -11 -1 13 19 20 18 23
14 14 14 14 14 13 11 10 11 14 16 17 14 9 4 1 4 8 13 16 14 10 6 2 2 4 8 14 5 -7 -16 -20 -0 16 23 19 18 20 23 25 28 30 31 30 29 31 33 35 28 19 11 8 13 19 24 23 20 18 17 15 6 -3 -11 -12 -5 2 8 12 16
15 15 14 14 14 13 12 10 10 13 16 18 16 12 7 2 3 6 11 16 14 10 6 5 3 -3 -6 4 8 1 -12 -28 -20 -7 5 10 14 19 24 25 27 27 27 28 30 33 35 35 30 25 20 17 17 19 22 25 26 27 28 28 23 15 6 -3 -8 -7 -3 2 6
16 15 14 14 14 14 13 11 11 12 15 18 18 15 11 5 3 4 9 14 14 11 8 7 5 -5 -13 -10 2 4 -3 -21 -29 -27 -16 0 14 20 21 17 18 19 20 23 27 29 29 26 24 22 22 21 19 17 17 18 20 21 23 25 25 23 20 14 6 2 -1 -2 0
17 16 15 15 15 14 13 12 11 12 14 17 18 17 14 9 4 3 6 11 12 12 11 10 8 2 -5 -11 -5 1 3 -4 -16 -22 -20 -8 7 14 14 9 8 10 13 15 18 19 18 17 16 16 17 16 14 12 11 10 11 14 16 18 19 21 22 23 18 10 2 -5 -6
17 16 15 15 15 15 14 13 12 12 14 17 18 18 16 12 7 4 4 7 9 10 10 11 12 11 8 2 -2 0 4 7 1 -3 -6 -6 -2 2 3 3 4 5 6 7 8 10 11 11 11 12 11 11 9 7 5 4 4 6 8 11 14 16 18 21 20 14 5 -5 -9
18 17 16 16 16 15 15 14 13 13 14 16 18 19 18 15 10 5 3 3 5 7 8 9 11 14 16 16 11 7 6 9 11 10 7 4 -1 -2 -2 -0 2 4 2 -2 1 5 8 9 9 8 7 6 5 3 2 1 0 1 2 4 7 10 12 15 17 16 10 2 -5
19 18 18 17 17 16 15 14 13 13 14 15 17 18 18 16 12 8 4 2 3 3 4 6 8 11 15 20 21 17 12 10 13 14 14 11 6 3 1 1 3 3 0 -6 -3 1 5 7 7 6 5 4 2 1 0 -0 -1 -1 -2 -1 0 3 6 9 12 14 13 10 4
20 20 19 18 17 16 15 14 13 13 13 15 17 18 18 17 14 10 6 3 2 2 2 3 4 7 12 18 24 24 20 14 14 14 14 11 8 6 5 4 4 3 0 -3 -3 -1 1 3 4 4 4 3 2 1 0 0 0 0 -0 -2 -2 -1 1 3 7 10 11 12 9
21 20 19 18 17 16 15 14 13 13 13 14 16 17 18 17 15 12 8 6 3 2 1 1 2 4 8 14 22 26 25 19 15 13 12 10 9 7 5 4 3 2 1 0 -0 -1 -0 0 1 2 3 3 2 1 1 1 2 2 2 1 -1 -1 -1 -1 1 4 7 8 8
20 19 18 17 16 15 14 13 13 13 13 14 16 17 18 17 16 13 10 7 5 3 1 0 0 1 4 9 18 25 28 24 17 12 9 8 8 8 7 5 1 -0 -1 1 3 3 1 -1 -1 -1 0 1 1 1 1 2 2 3 4 3 0 -1 -2 -2 -2 0 3 5 6
18 18 17 16 15 14 13 13 12 12 13 14 16 17 18 18 17 15 12 9 7 4 3 2 1 0 1 3 10 20 27 29 21 12 5 2 5 8 10 7 1 -3 -4 -2 4 7 6 2 -1 -2 -2 -2 -1 -0 0 1 1 2 2 2 1 -1 -2 -3 -2 -1 1 3 4
17 16 16 15 14 13 12 12 12 12 13 14 16 17 19 19 18 17 15 12 10 7 5 4 3 2 1 1 4 11 19 28 26 17 7 -2 -1 3 7 7 1 -3 -5 -5 1 5 7 4 2 0 -2 -3 -2 -2 -1 -1 -1 -0 0 2 2 2 0 -2 -3 -2 -1 -0 0
16 15 14 14 13 12 12 12 12 12 13 14 16 17 19 20 19 18 16 15 13 11 9 7 6 6 5 4 3 5 9 17 22 21 16 7 3 1 1 1 -2 -3 -4 -5 -1 3 5 5 3 1 0 -1 -2 -2 -2 -3 -3 -2 -1 1 2 3 4 2 -0 -2 -2 -2 -1
15 14 13 12 12 11 12 12 12 12 13 14 16 17 19 20 20 19 17 16 15 13 11 10 9 9 8 7 6 5 6 7 12 16 18 18 15 11 6 1 -1 -3 -3 -3 -1 2 5 7 5 3 1 -0 -1 -1 -1 -2 -3 -2 -2 -1 0 2 3 4 3 2 0 -1 0
13 12 11 11 11 11 12 12 12 13 14 15 16 17 18 19 19 19 18 17 16 14 13 11 11 10 10 10 9 8 7 6 7 9 12 15 18 18 16 13 9 6 4 3 2 3 5 7 6 4 1 -1 -1 -0 0 1 0 -1 -1 -1 -0 0 1 3 5 5 4 2 1
11 10 9 9 10 11 11 11 12 13 14 15 16 17 17 17 18 18 19 18 17 16 15 13 12 11 10 10 10 11 10 10 10 9 9 10 13 15 17 18 18 17 15 14 12 11 10 10 9 7 5 3 2 2 3 4 4 4 3 2 3 3 3 3 5 5 5 5 4
10 8 8 9 10 10 11 11 12 12 12 13 15 15 16 16 16 16 17 18 18 17 16 14 13 11 10 10 11 12 12 12 12 12 11 10 10 10 12 13 15 16 18 19 19 19 19 18 17 16 14 12 11 10 10 10 11 11 11 11 10 10 10 10 10 10 9 9 9
9 8 8 8 9 9 10 11 11 11 11 12 13 14 14 14 13 14 14 15 15 15 14 13 13 12 12 12 12 12 11 12 12 12 12 10 10 10 11 11 12 12 13 14 16 17 18 19 19 19 19 18 18 17 16 16 16 17 17 18 18 18 18 18 18 17 17 17 16
9 8 8 8 8 9 9 9 10 10 11 11 12 12 12 12 11 11 12 12 13 13 13 13 12 11 11 10 9 9 10 11 11 12 12 12 12 12 12 13 13 13 12 12 12 12 13 13 14 15 16 16 17 16 16 16 16 16 16 17 17 18 19 19 19 19 19 19 19
10 9 9 8 8 8 9 9 10 11 11 11 11 11 11 10 10 10 10 10 11 11 11 11 11 10 9 8 8 8 7 7 8 9 11 12 13 13 13 13 14 14 13 12 12 11 11 12 12 13 13 14 14 14 14 13 13 12 12 12 13 13 14 14 14 14 15 15 16
10 10 10 10 9 9 9 10 11 11 12 12 12 11 11 11 10 10 10 10 10 11 11 11 11 11 11 10 10 10 9 9 9 9 10 10 10 11 11 12 13 13 13 12 11 11 11 11 11 12 13 13 13 13 13 12 11 11 10 10 10 10 10 10 11 11 11 12 13
11 11 11 11 11 11 11 11 12 12 13 13 13 13 12 12 11 11 11 11 11 11 12 12 13 13 13 13 13 12 12 11 11 10 10 10 9 9 9 10 11 11 10 10 10 10 11 10 10 11 12 12 12 11 10 10 10 10 10 10 9 9 9 9 9 9 10 11 11
11 11 11 11 11 11 11 11 12 12 13 13 13 13 12 12 12 11 11 11 12 12 12 13 13 13 13 13 12 12 12 11 11 11 10 10 9 9 9 10 9 9 9 9 9 9 10 11 11 12 13 12 10 8 6 6 7 9 9 10 9 9 9 8 8 8 8 9 9
12 11 11 10 10 10 10 10 11 11 11 11 11 11 11 10 10 9 9 9 10 10 10 10 10 9 9 8 8 9 9 9 9 9 9 8 8 8 9 9 8 8 8 8 7 7 8 9 11 12 12 9 6 4 3 4 6 8 9 10 10 9 8 7 6 5 5 5 5
12 11 11 10 10 9 9 9 9 10 10 10 10 10 9 9 9 9 8 8 8 8 7 6 5 4 3 3 4 4 4 5 5 5 5 6 6 7 7 7 7 7 7 7 6 6 6 6 7 7 5 3 2 2 4 6 8 9 10 10 10 9 8 7 5 4 3 2 2
11 11 10 10 9 9 9 9 9 9 9 9 9 10 10 10 10 10 10 10 10 9 8 7 6 5 4 4 4 4 4 4 5 5 6 6 7 8 9 9 9 8 8 8 8 7 6 5 5 4 3 3 4 5 7 9 10 11 11 11 10 9 9 8 6 5 4 3 4
10 10 10 9 9 9 9 9 9 9 9 9 9 9 10 10 11 11 12 12 12 12 12 12 11 10 10 10 10 9 9 9 9 10 10 11 11 12 13 13 12 12 11 11 11 10 9 8 8 7 7 7 8 9 10 11 11 12 12 12 11 10 10 9 9 8 7 7 7
9 9 10 10 9 9 9 9 8 8 8 8 8 9 9 9 10 10 11 11 12 12 13 13 13 13 14 14 13 13 13 13 13 13 14 14 14 14 14 14 14 14 13 13 13 13 12 12 11 11 11 11 11 11 12 12 12 12 12 12 12 11 11 11 10 10 10 10 10
9 10 10 10 10 10 10 9 9 8 8 8 8 8 8 8 9 9 9 9 9 10 10 11 11 12 12 13 13 13 13 13 13 13 13 13 13 13 13 12 13 12 12 12 12 12 12 12 12 12 12 11 11 11 11 11 10 10 10 10 11 11 11 11 11 11 11 11 11
Height
3019 3020 3021 3022 3023 3024 3024 3025 3026 3027 3028 3029 3030 3030 3031 3032 3033 3033 3034 3035 3035 3036 3037 3037 3038 3039 3040 3041 3042 3043 3044 3044 3045 3045 3045 3044 3044 3044 3044 3045 3045 3047 3047 3047 3046 3046 3046 3047 3048 3049 3050 3051 3051 3051 3050 3051 3051 3051 3051 3052 3052 3052 3053 3054 3054 3055 3056 3057 3057
3017 3018 3019 3020 3021 3022 3022 3023 3024 3025 3026 3027 3028 3028 3029 3030 3031 3031 3032 3033 3033 3034 3034 3035 3036 3037 3038 3039 3040 3041 3042 3043 3043 3044 3044 3043 3043 3042 3042 3043 3044 3045 3045 3046 3045 3044 3045 3046 3047 3048 3049 3050 3051 3050 3050 3050 3049 3050 3051 3051 3051 3051 3052 3052 3053 3054 3054 3054 3055
3014 3015 3016 3017 3018 3019 3020 3021 3022 3023 3024 3024 3025 3026 3027 3028 3029 3029 3030 3031 3031 3032 3033 3033 3034 3035 3036 3037 3038 3039 3040 3041 3041 3042 3042 3041 3041 3041 3041 3041 3042 3043 3044 3044 3044 3044 3044 3045 3046 3048 3049 3049 3050 3050 3049 3049 3048 3049 3049 3050 3051 3052 3052 3052 3053 3053 3053 3053 3054
3011 3012 3013 3014 3015 3017 3018 3019 3020 3021 3022 3022 3023 3024 3025 3026 3027 3028 3029 3029 3030 3030 3030 3031 3032 3033 3034 3035 3035 3037 3038 3039 3039 3040 3040 3040 3040 3040 3039 3039 3040 3041 3042 3043 3043 3042 3043 3044 3045 3046 3048 3049 3048 3048 3048 3047 3047 3047 3047 3048 3049 3051 3052 3053 3053 3054 3054 3054 3054
3009 3009 3010 3011 3013 3014 3015 3017 3018 3019 3019 3020 3021 3022 3023 3024 3025 3026 3027 3027 3028 3028 3029 3029 3030 3031 3031 3032 3033 3034 3035 3036 3037 3038 3038 3039 3039 3038 3038 3038 3039 3039 3041 3042 3042 3042 3042 3042 3044 3045 3046 3047 3046 3045 3045 3046 3046 3046 3047 3047 3048 3049 3050 3052 3051 3051 3052 3053 3054
3006 3007 3008 3009 3010 3011 3013 3014 3015 3016 3018 3019 3019 3020 3021 3022 3023 3024 3025 3026 3027 3027 3027 3028 3029 3029 3029 3029 3030 3031 3032 3034 3034 3035 3036 3036 3037 3036 3036 3036 3037 3038 3039 3041 3041 3041 3041 3041 3042 3043 3044 3045 3044 3044 3043 3043 3044 3045 3046 3046 3047 3046 3046 3045 3046 3047 3048 3049 3050
3003 3004 3005 3006 3007 3009 3010 3011 3013 3014 3015 3017 3017 3018 3019 3020 3021 3022 3023 3024 3025 3026 3026 3026 3027 3028 3028 3028 3029 3029 3030 3031 3031 3032 3033 3034 3034 3034 3034 3034 3035 3036 3038 3039 3040 3039 3039 3039 3040 3041 3042 3043 3044 3043 3042 3041 3042 3044 3044 3044 3045 3045 3045 3045 3046 3047 3048 3049 3050
3001 3002 3002 3003 3004 3006 3007 3009 3010 3012 3013 3014 3015 3016 3017 3018 3019 3020 3021 3023 3024 3025 3025 3025 3026 3026 3027 3028 3028 3029 3029 3028 3029 3029 3030 3031 3031 3032 3032 3033 3033 3034 3036 3038 3038 3038 3038 3038 3039 3039 3040 3041 3042 3042 3041 3041 3041 3043 3044 3044 3044 3044 3044 3044 3046 3048 3049 3050 3051
2998 2999 3000 3001 3002 3003 3004 3006 3008 3009 3010 3012 3013 3014 3015 3016 3017 3018 3019 3021 3022 3023 3024 3024 3025 3026 3027 3028 3029 3029 3028 3026 3026 3027 3028 3029 3029 3029 3030 3031 3031 3032 3033 3035 3036 3037 3037 3037 3037 3037 3038 3039 3039 3041 3041 3041 3041 3041 3041 3042 3043 3043 3043 3044 3045 3047 3048 3049 3050
2996 2996 2997 2998 2999 3000 3002 3003 3005 3006 3008 3009 3011 3012 3013 3014 3015 3016 3017 3019 3020 3021 3023 3023 3024 3024 3026 3026 3027 3028 3029 3027 3025 3025 3026 3027 3027 3028 3029 3029 3029 3030 3031 3033 3034 3035 3035 3035 3036 3037 3037 3037 3038 3039 3040 3041 3041 3041 3041 3041 3042 3043 3043 3044 3044 3045 3047 3048 3049
2993 2994 2994 2995 2996 2998 2999 3001 3002 3004 3005 3007 3008 3010 3011 3012 3013 3014 3015 3017 3019 3020 3021 3021 3022 3023 3024 3023 3024 3026 3028 3028 3026 3025 3025 3025 3025 3026 3027 3027 3028 3028 3029 3030 3031 3033 3034 3034 3035 3036 3037 3037 3037 3037 3038 3039 3040 3040 3041 3041 3041 3042 3042 3043 3044 3044 3045 3047 3048
2990 2991 2992 2993 2994 2995 2997 2998 2999 3001 3003 3004 3006 3007 3009 3010 3011 3013 3014 3015 3016 3018 3019 3020 3021 3021 3021 3021 3022 3023 3025 3027 3027 3025 3024 3024 3024 3024 3024 3025 3025 3026 3027 3028 3029 3030 3031 3033 3034 3035 3036 3036 3036 3036 3037 3038 3039 3039 3040 3041 3041 3041 3042 3043 3044 3045 3045 3046 3047
2987 2988 2989 2990 2991 2993 2994 2996 2997 2999 3000 3002 3003 3005 3006 3008 3009 3010 3012 3013 3014 3015 3017 3019 3019 3020 3020 3020 3020 3021 3023 3024 3025 3024 3022 3022 3023 3023 3022 3023 3024 3024 3025 3026 3027 3028 3029 3031 3032 3033 3034 3035 3036 3036 3036 3036 3037 3038 3039 3040 3040 3041 3042 3043 3044 3044 3045 3045 3046
2984 2985 2986 2988 2989 2990 2992 2993 2995 2996 2998 2999 3001 3003 3004 3006 3007 3009 3010 3011 3012 3014 3015 3016 3017 3018 3018 3019 3019 3019 3020 3021 3022 3022 3022 3021 3022 3021 3021 3022 3022 3023 3023 3024 3025 3026 3028 3029 3030 3031 3032 3034 3035 3035 3035 3035 3035 3036 3037 3038 3039 3040 3041 3042 3043 3044 3044 3045 3046
2981 2983 2984 2985 2986 2988 2989 2991 2992 2994 2996 2997 2999 3000 3002 3004 3005 3006 3008 3009 3010 3012 3013 3014 3015 3016 3017 3017 3017 3018 3018 3019 3019 3019 3020 3021 3021 3020 3020 3021 3021 3022 3022 3023 3024 3025 3026 3027 3028 3029 3031 3032 3034 3035 3035 3035 3034 3034 3035 3036 3038 3039 3040 3042 3043 3043 3044 3045 3046
2979 2980 2981 2983 2984 2985 2987 2989 2990 2992 2994 2995 2997 2999 3000 3002 3003 3004 3006 3007 3008 3009 3010 3011 3013 3014 3014 3015 3015 3016 3016 3017 3017 3018 3019 3020 3020 3019 3019 3020 3021 3021 3022 3022 3023 3024 3025 3026 3027 3028 3029 3031 3033 3034 3035 3036 3035 3035 3035 3035 3036 3037 3039 3041 3042 3043 3044 3044 3045
2976 2978 2979 2980 2982 2983 2985 2987 2988 2990 2992 2993 2995 2997 2998 2999 3001 3003 3004 3005 3006 3007 3008 3009 3010 3011 3012 3013 3014 3014 3014 3015 3015 3017 3018 3018 3019 3019 3019 3020 3020 3021 3021 3022 3022 3023 3024 3025 3026 3027 3029 3030 3031 3033 3034 3035 3036 3036 3036 3036 3036 3036 3037 3039 3041 3042 3043 3044 3044
2974 2975 2977 2979 2980 2981 2983 2985 2986 2988 2990 2991 2993 2994 2996 2998 2999 3001 3002 3003 3004 3005 3006 3007 3008 3009 3010 3011 3012 3013 3013 3013 3014 3014 3016 3017 3017 3018 3018 3019 3019 3020 3020 3021 3022 3022 3023 3024 3025 3026 3027 3029 3030 3031 3033 3034 3036 3036 3037 3037 3037 3037 3037 3038 3039 3041 3042 3043 3044
2972 2974 2975 2977 2978 2980 2981 2983 2984 2986 2988 2989 2991 2993 2994 2996 2997 2999 3000 3001 3003 3004 3004 3005 3006 3007 3008 3009 3010 3011 3012 3012 3012 3012 3014 3015 3015 3016 3017 3018 3019 3019 3019 3020 3020 3021 3022 3023 3024 3025 3026 3027 3029 3030 3031 3033 3034 3035 3036 3036 3037 3037 3037 3038 3039 3040 3041 3042 3043
2971 2972 2974 2975 2977 2978 2980 2981 2983 2985 2986 2988 2989 2991 2992 2994 2995 2997 2998 2999 3001 3002 3003 3004 3004 3005 3006 3007 3008 3009 3010 3010 3010 3011 3011 3013 3014 3015 3016 3017 3018 3018 3019 3019 3019 3020 3020 3022 3023 3024 3025 3026 3027 3029 3030 3031 3032 3033 3034 3035 3036 3036 3037 3038 3038 3039 3040 3041 3042
2969 2971 2972 2974 2975 2977 2979 2980 2982 2983 2985 2986 2988 2989 2990 2992 2994 2995 2996 2998 2999 3000 3001 3002 3003 3004 3005 3006 3007 3008 3009 3009 3009 3009 3010 3010 3012 3013 3014 3015 3016 3017 3018 3018 3019 3019 3019 3020 3021 3023 3024 3025 3026 3027 3028 3029 3030 3032 3033 3034 3034 3035 3036 3037 3038 3038 3039 3040 3041
2969 2970 2971 2973 2974 2976 2977 2979 2980 2982 2984 2985 2986 2988 2989 2990 2992 2993 2994 2996 2997 2999 2999 3000 3001 3002 3003 3004 3005 3006 3007 3007 3008 3008 3009 3009 3010 3011 3012 3014 3015 3015 3016 3017 3018 3018 3019 3019 3020 3021 3022 3024 3025 3026 3027 3028 3029 3030 3031 3032 3033 3034 3035 3036 3037 3037 3038 3039 3040
2968 2969 2970 2972 2974 2975 2976 2978 2979 2981 2982 2984 2985 2986 2988 2989 2990 2991 2993 2994 2995 2997 2998 2999 3000 3001 3002 3003 3004 3004 3005 3006 3007 3007 3007 3008 3009 3009 3010 3012 3013 3014 3015 3016 3017 3017 3017 3018 3019 3019 3021 3022 3023 3024 3025 3026 3027 3028 3029 3030 3031 3032 3033 3034 3035 3036 3037 3038 3039
2967 2969 2970 2971 2973 2974 2975 2977 2978 2980 2981 2982 2984 2985 2986 2988 2989 2990 2991 2993 2994 2995 2996 2997 2998 2999 3000 3001 3002 3003 3004 3004 3005 3005 3006 3007 3007 3008 3009 3010 3011 3012 3013 3014 3015 3016 3016 3017 3017 3018 3019 3020 3021 3022 3023 3024 3025 3027 3028 3029 3029 3030 3031 3032 3033 3034 3035 3036 3037
2967 2968 2969 2970 2972 2973 2975 2976 2978 2979 2980 2981 2983 2984 2985 2986 2987 2989 2990 2991 2992 2993 2994 2995 2997 2998 2999 2999 3000 3001 3002 3003 3003 3004 3004 3005 3006 3007 3008 3009 3010 3011 3012 3013 3014 3014 3014 3015 3016 3017 3018 3019 3019 3021 3022 3023 3024 3025 3026 3027 3028 3029 3029 3030 3031 3032 3033 3034 3034
2966 2968 2969 2970 2971 2973 2974 2976 2977 2978 2979 2980 2982 2983 2984 2985 2986 2987 2988 2989 2990 2992 2993 2994 2995 2996 2997 2998 2999 2999 3000 3001 3002 3002 3003 3004 3004 3005 3006 3007 3008 3009 3010 3011 3012 3012 3013 3014 3014 3015 3016 3017 3018 3019 3020 3021 3022 3023 3024 3025 3026 3027 3028 3029 3029 3030 3031 3032 3033
2966 2967 2969 2970 2971 2972 2974 2975 2976 2977 2978 2979 2980 2982 2983 2984 2985 2986 2987 2988 2989 2990 2991 2992 2993 2994 2995 2996 2997 2998 2998 2999 3000 3001 3001 3002 3003 3003 3004 3005 3006 3007 3008 3009 3009 3010 3011 3012 3013 3014 3014 3015 3016 3017 3018 3019 3020 3021 3022 3023 3024 3025 3026 3027 3027 3028 3029 3030 3030
2966 2967 2968 2969 2971 2972 2973 2974 2975 2976 2977 2979 2979 2981 2982 2983 2984 2985 2986 2987 2988 2989 2989 2991 2992 2993 2994 2994 2995 2996 2997 2997 2998 2999 3000 3000 3001 3002 3002 3003 3004 3005 3006 3007 3008 3009 3009 3010 3011 3012 3013 3014 3015 3015 3016 3017 3018 3019 3020 3021 3022 3023 3024 3025 3025 3026 3027 3028 3029
2966 2967 2968 2969 2970 2971 2972 2973 2974 2975 2976 2978 2979 2980 2981 2982 2983 2984 2985 2986 2987 2987 2988 2989 2990 2991 2992 2992 2993 2994 2995 2996 2996 2997 2998 2999 2999 3000 3001 3002 3003 3003 3004 3005 3006 3007 3008 3009 3009 3010 3011 3012 3013 3014 3014 3015 3016 3017 3018 3019 3020 3021 3022 3023 3023 3024 3025 3025 3026
2965 2966 2967 2968 2969 2970 2971 2973 2974 2974 2975 2977 2978 2979 2979 2980 2982 2983 2984 2984 2985 2986 2987 2988 2989 2989 2990 2991 2992 2992 2993 2994 2995 2995 2996 2997 2998 2999 2999 3000 3001 3002 3003 3004 3004 3005 3006 3007 3008 3009 3010 3010 3011 3012 3013 3014 3014 3015 3016 3017 3018 3019 3019 3020 3021 3022 3022 3023 3024
2965 2966 2967 2968 2969 2969 2971 2972 2973 2974 2974 2975 2976 2977 2978 2979 2980 2981 2983 2984 2984 2985 2986 2987 2988 2989 2989 2990 2991 2992 2992 2993 2994 2994 2995 2995 2996 2997 2998 2999 2999 3000 3001 3002 3003 3004 3004 3005 3006 3007 3008 3009 3009 3010 3011 3011 3012 3013 3014 3015 3015 3016 3017 3018 3019 3019 3020 3020 3021
2965 2966 2967 2967 2968 2969 2970 2971 2972 2973 2974 2974 2975 2976 2977 2978 2979 2980 2981 2982 2983 2984 2985 2986 2987 2988 2988 2989 2990 2990 2991 2992 2993 2993 2994 2994 2995 2995 2996 2997 2998 2999 3000 3001 3001 3002 3003 3004 3004 3005 3006 3007 3008 3008 3009 3010 3010 3011 3012 3013 3014 3014 3015 3016 3016 3017 3018 3018 3019
2965 2966 2967 2967 2968 2969 2970 2970 2971 2972 2973 2974 2974 2975 2976 2977 2978 2979 2980 2981 2982 2983 2984 2985 2986 2986 2987 2988 2989 2989 2990 2991 2992 2992 2993 2994 2994 2995 2995 2996 2997 2998 2999 3000 3000 3001 3002 3002 3003 3004 3004 3005 3006 3007 3007 3008 3009 3009 3010 3011 3012 3012 3013 3014 3014 3015 3015 3016 3017
2965 2966 2967 2967 2968 2969 2969 2970 2971 2972 2973 2973 2974 2975 2976 2976 2977 2978 2979 2980 2981 2982 2983 2984 2985 2985 2986 2987 2988 2989 2989 2990 2991 2991 2992 2993 2993 2994 2994 2995 2996 2997 2998 2999 2999 3000 3000 3001 3001 3002 3003 3003 3004 3005 3006 3006 3007 3008 3009 3009 3010 3011 3011 3012 3013 3013 3014 3014 3015
2965 2966 2967 2967 2968 2969 2969 2970 2971 2971 2972 2973 2974 2974 2975 2976 2977 2977 2978 2979 2980 2981 2982 2983 2984 2984 2985 2986 2987 2987 2988 2989 2989 2990 2991 2991 2992 2993 2993 2994 2995 2996 2996 2997 2998 2999 2999 3000 3001 3001 3001 3002 3003 3004 3004 3005 3005 3006 3007 3008 3008 3009 3010 3010 3011 3011 3012 3012 3013
2965 2966 2966 2967 2967 2968 2969 2969 2970 2971 2971 2972 2973 2974 2974 2975 2976 2977 2977 2978 2979 2980 2981 2981 2982 2983 2984 2984 2985 2986 2987 2987 2988 2989 2989 2990 2990 2991 2992 2992 2993 2994 2995 2995 2996 2997 2998 2998 2999 2999 3000 3000 3001 3002 3003 3003 3004 3004 3005 3006 3006 3007 3008 3008 3009 3009 3010 3010 3011
2965 2966 2966 2967 2967 2968 2968 2969 2969 2970 2971 2971 2972 2973 2974 2974 2975 2976 2977 2978 2978 2979 2980 2980 2981 2982 2983 2983 2984 2985 2985 2986 2987 2987 2988 2989 2989 2989 2990 2991 2991 2992 2993 2994 2994 2995 2995 2996 2996 2997 2998 2998 2999 3000 3000 3001 3002 3002 3003 3004 3004 3005 3006 3006 3007 3007 3008 3008 3009
2965 2965 2966 2966 2967 2967 2968 2968 2969 2969 2970 2971 2971 2972 2973 2973 2974 2975 2976 2976 2977 2978 2979 2979 2980 2981 2981 2982 2983 2983 2984 2984 2985 2985 2986 2987 2987 2988 2988 2989 2989 2990 2991 2991 2992 2993 2993 2994 2994 2995 2996 2996 2997 2998 2999 2999 3000 3000 3001 3002 3002 3003 3004 3004 3005 3005 3006 3006 3007
2965 2965 2966 2966 2966 2967 2967 2968 2968 2969 2969 2970 2970 2971 2972 2972 2973 2974 2974 2975 2976 2976 2977 2978 2979 2979 2980 2980 2981 2981 2982 2983 2983 2984 2984 2985 2985 2986 2987 2987 2988 2988 2989 2990 2990 2991 2991 2992 2993 2993 2994 2995 2995 2996 2997 2997 2998 2998 2999 2999 3000 3001 3001 3002 3003 3003 3004 3004 3004
2964 2965 2965 2965 2966 2966 2967 2967 2968 2968 2969 2969 2969 2970 2971 2971 2972 2973 2974 2974 2975 2975 2976 2976 2977 2978 2978 2979 2979 2980 2981 2981 2982 2982 2983 2983 2984 2984 2985 2985 2986 2986 2987 2988 2988 2989 2989 2990 2991 2991 2992 2993 2993 2994 2994 2995 2995 2996 2996 2997 2998 2998 2999 2999 3000 3001 3001 3002 3002
2964 2964 2964 2965 2965 2966 2966 2967 2967 2967 2968 2968 2969 2969 2970 2970 2971 2971 2972 2973 2973 2974 2974 2975 2975 2976 2977 2977 2978 2979 2979 2979 2980 2981 2981 2982 2982 2983 2983 2984 2984 2984 2985 2985 2986 2987 2987 2988 2989 2989 2989 2990 2991 2991 2992 2992 2993 2993 2994 2994 2995 2996 2996 2997 2998 2998 2999 2999 2999